Powrót do katalogu

CZ-6A DEB

AktywnyPO
NORAD 61175·DEBRIS·🇨🇳 China

Wystrzelony Aug 6, 2024 z Taiyuan Satellite Launch Center

Loading…

Następne Przeloty (najbliższe 24 godziny)

TLE

ŚwieżeSource: Space-Track

Epoka: Sep 14, 2026, 12:00 UTC

1 61175U 24140RV  26257.50023446  .00000219  00000-0  15103-3 0  9992
2 61175  89.0577 274.6365 0202309  21.2414 339.7006 13.86428105104293

Śledź CZ-6A DEB w czasie rzeczywistym z AllMySat

Download on the App Store